Regional Weather Roundup
Issued by NWS

Home | Current Version | Previous Version | Graphics & Text | Print | Product List | Glossary On
Versions: 1 2 3 4 5 6 7 8 9 10 11 12 13 14 15 16 17 18 19 20 21 22 23 24 25 26 27 28 29 30 31 32 33 34 35 36 37 38 39 40 41 42 43 44 45 46 47 48 49 50
000
ASUS44 KMEG 211310
RWRTN
TENNESSEE HOURLY STATE WEATHER ROUNDUP
NATIONAL WEATHER SERVICE MEMPHIS TN
800 AM CDT THU SEP 21 2017

TNZ002-004-019-021-049-052-054-088>092-211400-
WEST TENNESSEE

CITY           SKY/WX    TMP DP  RH WIND       PRES   REMARKS
MEMPHIS INTL   MOSUNNY   75  70  84 S5        30.06R
NWS MEMPHIS      N/A     73 N/A N/A MISG        N/A
JACKSON        SUNNY     73  72  96 CALM      30.08R
DYERSBURG      PTSUNNY   74  72  93 CALM      30.07R
SOMERVILLE     SUNNY     73  72  94 CALM      30.06R
COVINGTON      SUNNY     72  72 100 CALM      30.06R FOG
BOLIVAR        SUNNY     72  70  94 CALM      30.07R
PARIS          SUNNY     75  73  94 CALM      30.07R
HUNTINGDON     SUNNY     73  73 100 CALM      30.07R FOG
LEXINGTON      SUNNY     70  70 100 CALM      30.08R FOG
SELMER         MOSUNNY   72  72 100 CALM      30.08R
SAVANNAH       MOSUNNY   72  70  94 CALM      30.07S
$$

TNZ008-025-027-028-033-062-065-066-211400-
NORTH MIDDLE TENNESSEE

CITY           SKY/WX    TMP DP  RH WIND       PRES   REMARKS
NASHVILLE      MOSUNNY   71  68  90 CALM      30.10R
PORTLAND       SUNNY     73  70  88 S5        30.09R
CLARKSVILLE    SUNNY     72  69  90 CALM      30.09R
SMYRNA         SUNNY     72  68  87 CALM      30.10S
COOKEVILLE     SUNNY     68  66  94 CALM      30.11S
GALLATIN       CLOUDY    70  68  94 CALM      30.12R FOG
CROSSVILLE     SUNNY     66  64  93 CALM      30.16S
$$

TNZ061-075-076-078-094-096-097-211400-
SOUTH MIDDLE TENNESSEE

CITY           SKY/WX    TMP DP  RH WIND       PRES   REMARKS
TULLAHOMA      PTSUNNY   68  66  94 NE8       30.14R
WINCHESTER     MOSUNNY   68  68 100 CALM        N/A
COLUMBIA       SUNNY     70  70 100 CALM      30.08  FOG
SHELBYVILLE    MOSUNNY   70  70 100 CALM      30.09F
$$

TNZ017-018-042-046-047-211400-
NORTHEAST TENNESSEE

CITY           SKY/WX    TMP DP  RH WIND       PRES   REMARKS
TRI CITIES     MOSUNNY   65  62  90 CALM      30.16R
ELIZABETHTON   SUNNY     66  61  82 E5        30.16S
$$

TNZ012-013-036-069-073-074-211400-
CENTRAL EAST TENNESSEE

CITY           SKY/WX    TMP DP  RH WIND       PRES   REMARKS
KNOXVILLE      MOSUNNY   68  64  87 CALM      30.12R
OAK RIDGE      FOG       66  65  96 CALM      30.14R VSB 1/2
DOWNTOWN KNOXV SUNNY     68  68 100 CALM      30.12R
GATLINBURG     SUNNY     66  63  88 CALM      30.12R
MORRISTOWN     SUNNY     70  64  83 CALM      30.13R
JACKSBORO      FOG       66  66 100 CALM      30.17S VSB 1/4
$$

TNZ083-085-099-211400-
SOUTHEAST TENNESSEE

CITY           SKY/WX    TMP DP  RH WIND       PRES   REMARKS
CHATTANOOGA    MOSUNNY   71  67  87 CALM      30.11R
DAYTON         SUNNY     68  68 100 CALM      30.11R
$$

SKY/WX REPORTED AS FAIR MEANS FEW OR NO CLOUDS BELOW
12 THOUSAND FEET.





USA.gov is the U.S. government's official web portal to all federal, state and local government web resources and services.